Lakehurst NAS, NJ

2:29 PM EDT on March 24, 2017 (GMT -0400)
Lakehurst Naes

Weather History for KNEL - January, 2014

Change the Weather History Date:

Saturday, January 11, 2014

  Actual Average Record
Temperature  
Mean Temperature - -  
Max Temperature - 38 °F 48 °F (2017)
Min Temperature - 28 °F 21 °F (2016)
Moisture  
Dew Point -    
Average Humidity    
Maximum Humidity    
Minimum Humidity    
Precipitation  
Precipitation 0.25 in - - ()
Sea Level Pressure  
Sea Level Pressure 29.72 in    
Wind  
Wind Speed 10 mph (South)    
Max Wind Speed 21 mph    
Max Gust Speed 28 mph    
Averages and records for this station are not official NWS values.
T = Trace of Precipitation, MM = Missing Value Source: NWS Daily Summary

Daily Weather History Graph

Daily Weather History Graph

Search for Another Location

Airport or City:

Trip Planner

Search our weather history database for the weather conditions in past years. The results will help you decide how hot, cold, wet, or windy it might be!

Date:

Astronomy

Jan. 11, 2014 Rise Set
Actual Time 7:18 AM EST 4:52 PM EST
Civil Twilight 6:48 AM EST 5:22 PM EST
Nautical Twilight 6:15 AM EST 5:55 PM EST
Astronomical Twilight 5:42 AM EST 6:28 PM EST
Moon 1:34 PM EST (1/11) 3:21 AM EST (1/11)
Length of Visible Light 10h 33m
Length of Day
9h 33m
Waxing Gibbous, 83% of the Moon is Illuminated
Jan 11
Waxing Gibbous
Jan 15
Full
Jan 24
Last Quarter
Jan 30
New
Feb 6
First Quarter

Hourly Weather History & Observations

Time (EST) Temp. Dew Point Humidity Pressure Visibility Wind Dir Wind Speed Gust Speed Precip Events Conditions
12:00 AM - - N/A% 30.18 in - East 3.5 mph - 0.00 in   Overcast
1:19 AM - - N/A% 30.14 in - ESE 4.6 mph - 0.00 in Rain Light Rain
2:00 AM - - N/A% 30.12 in - SE 5.8 mph - 0.00 in   Overcast
2:06 AM - - N/A% 30.11 in - ESE 4.6 mph - 0.00 in   Overcast
2:21 AM - - N/A% 30.11 in - SE 6.9 mph - N/A   Overcast
3:00 AM - - N/A% 30.08 in - SE 8.1 mph - N/A   Overcast
4:00 AM - - N/A% 30.04 in - SE 9.2 mph - N/A   Overcast
4:26 AM - - N/A% 30.02 in - SE 9.2 mph - N/A   Overcast
4:34 AM - - N/A% 30.01 in - SE 10.4 mph - N/A   Overcast
5:00 AM - - N/A% 30.00 in - SSE 8.1 mph - N/A   Overcast
5:41 AM - - N/A% 29.97 in - South 12.7 mph 23.0 mph N/A   Overcast
6:00 AM - - N/A% 29.96 in - South 13.8 mph 21.9 mph 0.00 in   Overcast
7:00 AM - - N/A% 29.93 in - South 15.0 mph 26.5 mph 0.00 in   Overcast
9:00 AM - - N/A% 29.87 in - South 16.1 mph 24.2 mph 0.00 in   Overcast
10:00 AM - - N/A% 29.83 in - South 18.4 mph 26.5 mph 0.04 in   Overcast
10:06 AM - - N/A% 29.83 in - South 12.7 mph 24.2 mph 0.04 in   Overcast
11:00 AM - - N/A% 29.78 in - South 20.7 mph 27.6 mph N/A   Overcast
11:55 AM - - N/A% 29.71 in - South 15.0 mph 23.0 mph 0.00 in   Overcast
12:00 PM - - N/A% 29.70 in - South 17.3 mph 23.0 mph 0.00 in   Overcast
12:35 PM - - N/A% 29.65 in - South 11.5 mph 21.9 mph 0.09 in Rain , Thunderstorm Heavy Thunderstorms and Rain
12:51 PM - - N/A% 29.62 in - South 13.8 mph - 0.15 in Rain Light Rain
1:00 PM - - N/A% 29.62 in - South 13.8 mph - 0.15 in   Overcast
1:06 PM - - N/A% 29.62 in - South 15.0 mph - 0.15 in   Overcast
2:00 PM - - N/A% 29.56 in - South 12.7 mph 19.6 mph N/A   Overcast
3:00 PM - - N/A% 29.51 in - South 12.7 mph 19.6 mph 0.02 in Rain Heavy Rain
4:00 PM - - N/A% 29.49 in - South 16.1 mph 24.2 mph 0.00 in Rain Light Rain
5:00 PM - - N/A% 29.48 in - West 9.2 mph - 0.02 in Rain Light Rain
5:20 PM - - N/A% 29.51 in - WNW 15.0 mph 26.5 mph 0.25 in Rain Rain
5:36 PM - - N/A% 29.50 in - West 10.4 mph 18.4 mph 0.25 in Rain Rain
6:12 PM - - N/A% 29.49 in - West 8.1 mph - 0.00 in Rain Light Rain
7:00 PM - - N/A% 29.45 in - SW 4.6 mph - 0.00 in   Mostly Cloudy
8:00 PM - - N/A% 29.40 in - South 6.9 mph - N/A   Overcast
8:26 PM - - N/A% 29.41 in - South 10.4 mph - N/A   Overcast
9:00 PM - - N/A% 29.39 in - South 10.4 mph - N/A   Mostly Cloudy
10:00 PM - - N/A% 29.46 in - SW 10.4 mph - N/A   Mostly Cloudy
10:06 PM - - N/A% 29.47 in - SW 11.5 mph - N/A   Mostly Cloudy
10:51 PM - - N/A% 29.44 in - SW 12.7 mph 20.7 mph 0.02 in Rain Light Rain
11:00 PM - - N/A% 29.45 in - SW 13.8 mph 20.7 mph 0.02 in   Overcast
11:08 PM - - N/A% 29.44 in - SW 12.7 mph 19.6 mph N/A   Overcast
11:40 PM - - N/A% 29.44 in - WSW 11.5 mph - N/A   Overcast